Springfield, IL

7:52 PM CDT on March 30, 2017 (GMT -0500)
Capital

Weather History for KSPI - July, 2014

Change the Weather History Date:

Monday, July 28, 2014

  Actual Average Record
Temperature  
Mean Temperature 65 °F 75 °F  
Max Temperature 75 °F 86 °F 104 °F (1930)
Min Temperature 55 °F 65 °F 48 °F (2013)
Degree Days  
Heating Degree Days 0 0  
Month to date heating degree days 3 0  
Since 1 June heating degree days 3 15  
Since 1 July heating degree days 3 0  
Cooling Degree Days 0 10  
Month to date cooling degree days 200 306  
Year to date cooling degree days 682 650  
Since 1 June cooling degree days 506 546  
Growing Degree Days 15 (Base 50)    
Moisture  
Dew Point 57 °F    
Average Humidity 71    
Maximum Humidity 93    
Minimum Humidity 49    
Precipitation  
Precipitation 0.00 in 0.12 in 2.33 in (1907)
Month to date precipitation 2.53 3.60  
Year to date precipitation 25.69 22.07  
Snow  
Snow 0.00 in 0.00 in 0.00 in ()
Month to date snowfall 0.0 0.0  
Since 1 June snowfall 0.0 0.0  
Since 1 July snowfall 0.0 0.0  
Snow Depth 0.00 in    
Sea Level Pressure  
Sea Level Pressure 30.07 in    
Wind  
Wind Speed 9 mph (NNW)    
Max Wind Speed 17 mph    
Max Gust Speed 23 mph    
Visibility 10 miles    
Events      
T = Trace of Precipitation, MM = Missing Value Source: NWS Daily Summary

Daily Weather History Graph

Daily Weather History Graph

Search for Another Location

Airport or City:

Trip Planner

Search our weather history database for the weather conditions in past years. The results will help you decide how hot, cold, wet, or windy it might be!

Date:

Astronomy

Jul. 28, 2014 Rise Set
Actual Time 5:53 AM CDT 8:16 PM CDT
Civil Twilight 5:23 AM CDT 8:46 PM CDT
Nautical Twilight 4:45 AM CDT 9:24 PM CDT
Astronomical Twilight 4:03 AM CDT 10:05 PM CDT
Moon 7:35 AM CDT (7/28) 8:58 PM CDT (7/28)
Length of Visible Light 15h 23m
Length of Day
14h 22m
Waxing Crescent, 3% of the Moon is Illuminated
Jul 28
Waxing Crescent
Aug 3
First Quarter
Aug 10
Full
Aug 17
Last Quarter
Aug 25
New

Hourly Weather History & Observations

Time (CDT) Temp. Dew Point Humidity Pressure Visibility Wind Dir Wind Speed Gust Speed Precip Events Conditions
12:52 AM 66.9 °F 60.1 °F 79% 29.96 in 10.0 mi WNW 9.2 mph - N/A   Clear
1:52 AM 66.9 °F 60.1 °F 79% 29.96 in 10.0 mi NW 10.4 mph - N/A   Clear
2:52 AM 66.0 °F 60.1 °F 81% 29.97 in 10.0 mi NW 10.4 mph - N/A   Clear
3:52 AM 64.9 °F 61.0 °F 87% 29.98 in 10.0 mi NW 9.2 mph - N/A   Clear
4:52 AM 64.0 °F 61.0 °F 90% 30.00 in 10.0 mi NNW 8.1 mph - N/A   Clear
5:52 AM 63.0 °F 61.0 °F 93% 30.03 in 10.0 mi NNW 8.1 mph - N/A   Clear
6:52 AM 64.9 °F 61.0 °F 87% 30.05 in 10.0 mi NNW 6.9 mph - N/A   Mostly Cloudy
7:52 AM 66.9 °F 60.1 °F 79% 30.06 in 10.0 mi North 10.4 mph - N/A   Clear
8:52 AM 69.8 °F 57.2 °F 64% 30.09 in 10.0 mi North 12.7 mph - N/A   Clear
9:27 AM 70.0 °F 59.0 °F 68% 30.10 in 10.0 mi North 11.5 mph - N/A   Mostly Cloudy
9:52 AM 71.1 °F 59.0 °F 66% 30.09 in 10.0 mi NNW 9.2 mph 17.3 mph N/A   Mostly Cloudy
10:52 AM 72.0 °F 57.0 °F 59% 30.11 in 10.0 mi North 15.0 mph - N/A   Partly Cloudy
11:52 AM 72.0 °F 55.9 °F 57% 30.11 in 10.0 mi NNW 9.2 mph - N/A   Partly Cloudy
12:52 PM 73.4 °F 55.4 °F 53% 30.11 in 10.0 mi North 12.7 mph 19.6 mph N/A   Partly Cloudy
1:52 PM 73.9 °F 55.0 °F 52% 30.11 in 10.0 mi NNW 10.4 mph - N/A   Mostly Cloudy
2:52 PM 73.9 °F 55.0 °F 52% 30.11 in 10.0 mi North 11.5 mph - N/A   Mostly Cloudy
3:52 PM 72.0 °F 54.0 °F 53% 30.11 in 10.0 mi North 10.4 mph - N/A   Mostly Cloudy
4:52 PM 73.4 °F 53.6 °F 50% 30.11 in 10.0 mi NW 16.1 mph 21.9 mph N/A   Scattered Clouds
5:52 PM 71.1 °F 53.1 °F 53% 30.11 in 10.0 mi North 9.2 mph - N/A   Mostly Cloudy
6:52 PM 73.0 °F 53.1 °F 49% 30.11 in 10.0 mi North 10.4 mph - N/A   Mostly Cloudy
7:52 PM 66.9 °F 54.0 °F 63% 30.11 in 10.0 mi North 5.8 mph - N/A   Partly Cloudy
8:52 PM 62.1 °F 57.0 °F 84% 30.12 in 10.0 mi North 3.5 mph - N/A   Clear
9:52 PM 59.0 °F 55.9 °F 90% 30.12 in 10.0 mi Calm Calm - N/A   Clear
10:52 PM 57.9 °F 55.0 °F 90% 30.12 in 10.0 mi WNW 3.5 mph - N/A   Clear
11:52 PM 55.9 °F 54.0 °F 93% 30.12 in 10.0 mi West 3.5 mph - N/A   Clear